Precipitable_Water
0.50 0.50 0.50 0.50 0.48 0.46 0.46 0.46 0.46 0.44 0.44 0.42 0.42 0.40 0.40 0.40 0.38 0.38 0.38 0.40 0.40 0.40 0.40 0.40 0.40 0.42 0.42 0.42 0.42 0.42 0.44 0.44 0.46 0.46 0.46 0.46 0.46 0.46 0.48 0.48 0.48 0.48 0.50 0.50 0.50 0.50 0.52 0.52 0.52 0.50 0.50 0.52 0.52 0.52 0.52 0.52 0.52 0.52 0.52 0.52 0.52 0.50 0.50 0.50 0.50 0.50 0.50 0.50 0.50
0.50 0.50 0.50 0.50 0.48 0.48 0.48 0.48 0.46 0.46 0.44 0.44 0.42 0.40 0.40 0.38 0.38 0.38 0.38 0.38 0.40 0.40 0.40 0.42 0.42 0.42 0.42 0.44 0.44 0.44 0.44 0.46 0.46 0.46 0.48 0.48 0.48 0.48 0.48 0.48 0.48 0.50 0.50 0.50 0.50 0.50 0.50 0.50 0.50 0.50 0.48 0.50 0.50 0.50 0.50 0.52 0.52 0.52 0.50 0.50 0.50 0.48 0.48 0.48 0.48 0.48 0.48 0.48 0.48
0.52 0.52 0.50 0.50 0.50 0.50 0.48 0.48 0.46 0.44 0.44 0.42 0.42 0.42 0.40 0.40 0.38 0.38 0.38 0.38 0.40 0.40 0.40 0.42 0.42 0.44 0.44 0.44 0.44 0.46 0.46 0.46 0.46 0.48 0.48 0.48 0.48 0.48 0.48 0.48 0.48 0.48 0.50 0.50 0.50 0.50 0.50 0.50 0.48 0.46 0.46 0.46 0.48 0.48 0.48 0.50 0.50 0.48 0.48 0.48 0.46 0.44 0.44 0.44 0.46 0.46 0.46 0.46 0.46
0.52 0.52 0.52 0.50 0.50 0.48 0.48 0.46 0.46 0.44 0.42 0.42 0.42 0.42 0.40 0.40 0.40 0.38 0.38 0.40 0.40 0.40 0.42 0.42 0.44 0.44 0.46 0.46 0.46 0.46 0.46 0.46 0.46 0.46 0.46 0.48 0.48 0.48 0.48 0.48 0.48 0.48 0.48 0.50 0.50 0.50 0.48 0.46 0.46 0.46 0.46 0.46 0.46 0.46 0.46 0.46 0.46 0.46 0.44 0.42 0.42 0.42 0.42 0.42 0.42 0.42 0.42 0.42 0.42
0.54 0.54 0.52 0.50 0.50 0.48 0.48 0.46 0.44 0.44 0.42 0.42 0.42 0.40 0.40 0.40 0.40 0.40 0.40 0.42 0.42 0.42 0.42 0.44 0.44 0.46 0.46 0.46 0.46 0.46 0.46 0.46 0.46 0.46 0.46 0.46 0.48 0.48 0.48 0.48 0.48 0.48 0.48 0.48 0.48 0.48 0.46 0.46 0.44 0.44 0.44 0.44 0.44 0.44 0.44 0.44 0.44 0.44 0.42 0.42 0.42 0.42 0.42 0.40 0.42 0.42 0.42 0.40 0.42
0.52 0.52 0.52 0.52 0.50 0.48 0.48 0.46 0.44 0.44 0.42 0.42 0.42 0.40 0.40 0.40 0.42 0.42 0.42 0.42 0.42 0.42 0.44 0.44 0.44 0.44 0.44 0.44 0.44 0.46 0.46 0.46 0.46 0.46 0.46 0.46 0.48 0.48 0.48 0.48 0.48 0.48 0.48 0.48 0.46 0.46 0.46 0.44 0.44 0.44 0.44 0.44 0.44 0.44 0.44 0.44 0.44 0.42 0.42 0.42 0.42 0.42 0.42 0.42 0.42 0.42 0.42 0.42 0.42
0.52 0.52 0.52 0.50 0.50 0.48 0.46 0.46 0.44 0.44 0.44 0.42 0.42 0.40 0.40 0.40 0.42 0.42 0.42 0.42 0.42 0.42 0.44 0.44 0.44 0.42 0.42 0.44 0.44 0.44 0.46 0.46 0.46 0.46 0.46 0.46 0.48 0.48 0.46 0.46 0.46 0.46 0.46 0.46 0.46 0.46 0.46 0.46 0.44 0.44 0.44 0.42 0.44 0.44 0.44 0.44 0.44 0.44 0.42 0.42 0.42 0.44 0.42 0.42 0.44 0.42 0.42 0.42 0.42
0.52 0.52 0.50 0.50 0.48 0.48 0.46 0.44 0.44 0.44 0.42 0.42 0.42 0.42 0.42 0.42 0.42 0.42 0.42 0.42 0.42 0.42 0.44 0.44 0.42 0.42 0.42 0.42 0.44 0.44 0.44 0.44 0.46 0.46 0.46 0.46 0.48 0.48 0.48 0.46 0.46 0.46 0.46 0.46 0.46 0.46 0.46 0.46 0.44 0.44 0.44 0.44 0.42 0.44 0.44 0.44 0.44 0.42 0.42 0.42 0.42 0.44 0.44 0.44 0.44 0.44 0.44 0.42 0.42
0.50 0.50 0.50 0.50 0.48 0.46 0.46 0.44 0.44 0.44 0.42 0.42 0.42 0.42 0.42 0.42 0.42 0.42 0.42 0.42 0.42 0.42 0.44 0.44 0.44 0.44 0.44 0.44 0.44 0.44 0.44 0.46 0.46 0.46 0.46 0.46 0.46 0.48 0.48 0.46 0.46 0.46 0.46 0.46 0.46 0.46 0.46 0.44 0.44 0.44 0.44 0.44 0.42 0.42 0.44 0.44 0.44 0.42 0.42 0.42 0.42 0.42 0.42 0.44 0.44 0.44 0.42 0.42 0.42
0.50 0.48 0.48 0.46 0.44 0.44 0.44 0.44 0.44 0.44 0.44 0.42 0.42 0.42 0.42 0.42 0.42 0.42 0.42 0.42 0.42 0.42 0.44 0.44 0.44 0.44 0.44 0.44 0.44 0.44 0.44 0.46 0.46 0.46 0.46 0.46 0.46 0.48 0.48 0.48 0.46 0.46 0.46 0.48 0.46 0.46 0.46 0.44 0.44 0.44 0.44 0.44 0.42 0.42 0.42 0.42 0.42 0.40 0.40 0.40 0.40 0.42 0.42 0.42 0.42 0.42 0.42 0.40 0.40
0.48 0.46 0.46 0.44 0.44 0.44 0.44 0.42 0.44 0.44 0.44 0.44 0.44 0.44 0.44 0.44 0.44 0.44 0.44 0.44 0.42 0.42 0.44 0.44 0.44 0.44 0.44 0.44 0.44 0.44 0.44 0.44 0.46 0.46 0.46 0.46 0.46 0.48 0.48 0.48 0.48 0.46 0.46 0.46 0.46 0.46 0.46 0.44 0.44 0.44 0.44 0.44 0.44 0.42 0.42 0.42 0.42 0.42 0.40 0.40 0.40 0.40 0.40 0.42 0.42 0.42 0.40 0.40 0.40
0.46 0.46 0.44 0.44 0.44 0.44 0.44 0.44 0.44 0.44 0.44 0.44 0.44 0.44 0.44 0.44 0.44 0.44 0.44 0.44 0.44 0.44 0.44 0.46 0.46 0.46 0.44 0.44 0.44 0.46 0.46 0.46 0.46 0.46 0.46 0.46 0.46 0.46 0.46 0.48 0.48 0.48 0.48 0.48 0.48 0.46 0.46 0.44 0.44 0.44 0.44 0.44 0.44 0.42 0.42 0.42 0.42 0.42 0.42 0.42 0.42 0.40 0.40 0.40 0.40 0.40 0.40 0.38 0.38
0.46 0.44 0.44 0.44 0.44 0.44 0.44 0.44 0.44 0.44 0.44 0.44 0.44 0.44 0.44 0.44 0.44 0.44 0.44 0.44 0.44 0.44 0.46 0.46 0.46 0.46 0.44 0.44 0.44 0.44 0.46 0.46 0.46 0.44 0.44 0.46 0.46 0.46 0.46 0.48 0.48 0.50 0.50 0.50 0.50 0.48 0.46 0.46 0.44 0.44 0.42 0.42 0.44 0.44 0.44 0.42 0.42 0.42 0.40 0.40 0.40 0.40 0.40 0.40 0.40 0.40 0.38 0.38 0.36
0.44 0.44 0.44 0.44 0.44 0.46 0.44 0.44 0.44 0.44 0.44 0.44 0.44 0.44 0.44 0.44 0.44 0.44 0.44 0.44 0.44 0.44 0.46 0.46 0.46 0.46 0.46 0.44 0.44 0.44 0.44 0.46 0.46 0.46 0.46 0.46 0.46 0.46 0.48 0.48 0.50 0.50 0.50 0.50 0.50 0.50 0.48 0.46 0.44 0.44 0.42 0.42 0.42 0.42 0.42 0.42 0.42 0.42 0.40 0.40 0.40 0.40 0.40 0.40 0.40 0.40 0.38 0.38 0.36
0.44 0.44 0.44 0.44 0.46 0.46 0.46 0.46 0.46 0.46 0.44 0.44 0.46 0.46 0.46 0.46 0.46 0.46 0.46 0.46 0.46 0.46 0.46 0.46 0.44 0.46 0.46 0.46 0.46 0.46 0.46 0.46 0.46 0.46 0.46 0.46 0.48 0.48 0.48 0.50 0.50 0.50 0.50 0.50 0.50 0.48 0.48 0.46 0.44 0.44 0.42 0.42 0.42 0.42 0.42 0.42 0.42 0.42 0.42 0.42 0.40 0.40 0.40 0.40 0.40 0.40 0.38 0.38 0.36
0.44 0.44 0.44 0.44 0.44 0.44 0.46 0.46 0.46 0.46 0.44 0.44 0.46 0.46 0.46 0.46 0.46 0.46 0.46 0.46 0.46 0.46 0.46 0.46 0.44 0.44 0.46 0.46 0.46 0.46 0.46 0.46 0.46 0.46 0.46 0.46 0.48 0.48 0.50 0.50 0.50 0.50 0.50 0.48 0.48 0.48 0.46 0.46 0.46 0.44 0.44 0.42 0.42 0.42 0.42 0.42 0.42 0.42 0.42 0.42 0.40 0.40 0.40 0.40 0.40 0.38 0.38 0.36 0.36
0.44 0.44 0.44 0.44 0.44 0.44 0.44 0.44 0.44 0.44 0.44 0.44 0.44 0.44 0.44 0.44 0.44 0.44 0.46 0.46 0.46 0.46 0.46 0.46 0.46 0.46 0.46 0.46 0.46 0.48 0.46 0.46 0.46 0.46 0.46 0.46 0.48 0.48 0.48 0.48 0.50 0.50 0.48 0.48 0.46 0.46 0.46 0.46 0.46 0.46 0.44 0.44 0.42 0.44 0.44 0.44 0.42 0.42 0.42 0.42 0.42 0.40 0.40 0.40 0.38 0.36 0.36 0.36 0.34
0.44 0.44 0.44 0.44 0.42 0.42 0.42 0.44 0.44 0.44 0.44 0.44 0.44 0.44 0.44 0.44 0.44 0.44 0.44 0.44 0.44 0.44 0.44 0.44 0.44 0.46 0.46 0.46 0.46 0.48 0.46 0.46 0.46 0.46 0.46 0.48 0.48 0.48 0.48 0.48 0.48 0.48 0.48 0.46 0.46 0.46 0.44 0.44 0.44 0.44 0.44 0.44 0.44 0.44 0.44 0.42 0.42 0.42 0.42 0.40 0.40 0.40 0.38 0.38 0.36 0.36 0.34 0.34 0.32
0.44 0.44 0.42 0.42 0.42 0.42 0.42 0.42 0.42 0.44 0.44 0.44 0.44 0.42 0.42 0.42 0.42 0.44 0.44 0.44 0.44 0.44 0.44 0.44 0.44 0.44 0.46 0.46 0.46 0.46 0.46 0.46 0.46 0.46 0.46 0.46 0.46 0.46 0.46 0.46 0.46 0.46 0.46 0.46 0.44 0.44 0.44 0.44 0.44 0.44 0.44 0.44 0.42 0.42 0.40 0.40 0.40 0.40 0.40 0.40 0.38 0.38 0.38 0.36 0.34 0.34 0.34 0.32 0.32
0.44 0.44 0.42 0.42 0.42 0.42 0.42 0.44 0.44 0.44 0.44 0.44 0.42 0.42 0.42 0.44 0.44 0.44 0.42 0.42 0.44 0.44 0.44 0.44 0.44 0.44 0.44 0.44 0.44 0.44 0.44 0.46 0.44 0.44 0.44 0.44 0.44 0.44 0.46 0.46 0.44 0.44 0.44 0.44 0.44 0.44 0.44 0.44 0.44 0.42 0.42 0.42 0.40 0.40 0.38 0.38 0.38 0.38 0.38 0.38 0.38 0.36 0.36 0.34 0.34 0.34 0.32 0.32 0.30
0.44 0.44 0.44 0.44 0.44 0.44 0.44 0.44 0.44 0.44 0.44 0.42 0.42 0.42 0.42 0.42 0.44 0.44 0.42 0.42 0.42 0.42 0.42 0.42 0.42 0.42 0.42 0.42 0.42 0.42 0.44 0.44 0.44 0.44 0.44 0.42 0.42 0.44 0.44 0.44 0.44 0.44 0.42 0.42 0.42 0.42 0.42 0.42 0.42 0.42 0.40 0.40 0.40 0.38 0.38 0.38 0.38 0.36 0.36 0.36 0.36 0.36 0.34 0.34 0.32 0.32 0.32 0.30 0.30
0.44 0.44 0.44 0.44 0.44 0.44 0.44 0.44 0.44 0.42 0.42 0.42 0.40 0.42 0.42 0.42 0.42 0.42 0.42 0.42 0.42 0.42 0.42 0.42 0.42 0.42 0.42 0.42 0.42 0.42 0.42 0.44 0.44 0.42 0.42 0.42 0.42 0.42 0.42 0.42 0.42 0.42 0.42 0.42 0.42 0.42 0.40 0.40 0.40 0.40 0.40 0.38 0.38 0.38 0.38 0.36 0.36 0.36 0.34 0.34 0.34 0.34 0.32 0.32 0.32 0.32 0.30 0.30 0.28
0.44 0.44 0.44 0.44 0.44 0.42 0.42 0.42 0.40 0.40 0.40 0.40 0.40 0.40 0.40 0.40 0.40 0.40 0.40 0.40 0.40 0.40 0.40 0.42 0.42 0.42 0.42 0.42 0.42 0.42 0.42 0.42 0.40 0.40 0.40 0.40 0.40 0.40 0.40 0.42 0.40 0.40 0.40 0.40 0.40 0.40 0.40 0.40 0.40 0.38 0.36 0.36 0.36 0.36 0.36 0.36 0.34 0.34 0.34 0.32 0.32 0.30 0.30 0.30 0.30 0.28 0.28 0.28 0.28
0.42 0.42 0.42 0.42 0.40 0.40 0.40 0.40 0.38 0.38 0.38 0.38 0.38 0.40 0.40 0.40 0.40 0.38 0.38 0.38 0.38 0.38 0.38 0.38 0.40 0.40 0.40 0.40 0.40 0.40 0.38 0.36 0.36 0.36 0.36 0.36 0.38 0.38 0.38 0.38 0.38 0.38 0.38 0.38 0.38 0.38 0.38 0.36 0.36 0.34 0.32 0.32 0.32 0.32 0.32 0.32 0.32 0.32 0.32 0.30 0.30 0.28 0.26 0.26 0.26 0.26 0.26 0.26 0.26
0.40 0.40 0.40 0.40 0.38 0.38 0.38 0.38 0.38 0.36 0.38 0.38 0.38 0.38 0.38 0.36 0.36 0.36 0.34 0.34 0.34 0.34 0.34 0.34 0.34 0.34 0.34 0.34 0.36 0.34 0.30 0.30 0.30 0.30 0.30 0.32 0.32 0.32 0.32 0.34 0.34 0.34 0.34 0.34 0.34 0.34 0.34 0.32 0.32 0.30 0.28 0.28 0.28 0.28 0.28 0.28 0.28 0.28 0.28 0.28 0.28 0.26 0.24 0.24 0.24 0.24 0.24 0.24 0.24
0.38 0.38 0.38 0.38 0.38 0.38 0.36 0.36 0.36 0.36 0.36 0.36 0.36 0.34 0.34 0.34 0.34 0.32 0.32 0.30 0.30 0.30 0.28 0.28 0.30 0.30 0.30 0.30 0.28 0.26 0.26 0.26 0.26 0.26 0.26 0.26 0.26 0.28 0.28 0.28 0.28 0.30 0.30 0.30 0.28 0.28 0.28 0.28 0.26 0.24 0.24 0.24 0.24 0.24 0.24 0.24 0.26 0.26 0.26 0.26 0.24 0.22 0.22 0.20 0.20 0.20 0.22 0.22 0.22
0.38 0.38 0.38 0.36 0.36 0.36 0.36 0.36 0.34 0.34 0.34 0.32 0.32 0.32 0.32 0.32 0.32 0.30 0.30 0.28 0.28 0.26 0.26 0.26 0.26 0.26 0.26 0.26 0.24 0.24 0.24 0.24 0.24 0.24 0.24 0.24 0.24 0.24 0.24 0.24 0.24 0.24 0.26 0.24 0.24 0.24 0.24 0.24 0.22 0.20 0.22 0.22 0.22 0.22 0.22 0.22 0.22 0.22 0.24 0.24 0.22 0.20 0.20 0.20 0.20 0.20 0.20 0.20 0.20
0.38 0.36 0.36 0.36 0.36 0.34 0.34 0.34 0.32 0.30 0.30 0.30 0.30 0.30 0.30 0.30 0.30 0.30 0.30 0.28 0.28 0.28 0.28 0.26 0.26 0.26 0.26 0.26 0.24 0.24 0.24 0.24 0.24 0.24 0.24 0.22 0.22 0.22 0.22 0.22 0.20 0.22 0.22 0.20 0.20 0.20 0.20 0.18 0.18 0.18 0.18 0.20 0.20 0.20 0.20 0.20 0.20 0.22 0.22 0.22 0.20 0.18 0.18 0.18 0.18 0.18 0.18 0.18 0.18
0.36 0.36 0.36 0.36 0.34 0.32 0.32 0.30 0.30 0.30 0.30 0.30 0.30 0.30 0.30 0.30 0.30 0.30 0.30 0.30 0.30 0.28 0.28 0.28 0.26 0.26 0.24 0.24 0.24 0.22 0.22 0.22 0.22 0.22 0.22 0.22 0.20 0.20 0.20 0.20 0.18 0.20 0.20 0.18 0.18 0.18 0.18 0.16 0.16 0.18 0.18 0.18 0.18 0.18 0.18 0.18 0.18 0.20 0.20 0.20 0.18 0.18 0.18 0.18 0.18 0.18 0.18 0.16 0.16
0.36 0.36 0.34 0.34 0.32 0.30 0.30 0.28 0.28 0.28 0.30 0.30 0.30 0.30 0.30 0.30 0.30 0.30 0.30 0.30 0.28 0.26 0.24 0.24 0.24 0.22 0.22 0.22 0.20 0.20 0.20 0.20 0.20 0.20 0.20 0.18 0.18 0.18 0.18 0.18 0.18 0.18 0.18 0.18 0.16 0.16 0.16 0.16 0.16 0.16 0.16 0.16 0.16 0.16 0.16 0.16 0.16 0.18 0.18 0.16 0.18 0.18 0.18 0.18 0.18 0.16 0.16 0.16 0.16
0.34 0.34 0.32 0.32 0.30 0.30 0.28 0.28 0.28 0.30 0.30 0.30 0.30 0.30 0.30 0.30 0.30 0.28 0.28 0.26 0.24 0.24 0.22 0.22 0.20 0.20 0.20 0.18 0.18 0.18 0.18 0.18 0.18 0.18 0.18 0.16 0.16 0.16 0.16 0.16 0.16 0.16 0.18 0.18 0.16 0.16 0.15 0.15 0.16 0.16 0.16 0.16 0.16 0.16 0.16 0.16 0.16 0.16 0.16 0.18 0.18 0.18 0.18 0.18 0.18 0.18 0.16 0.16 0.16
0.34 0.32 0.32 0.30 0.30 0.28 0.28 0.28 0.30 0.30 0.30 0.30 0.30 0.30 0.28 0.28 0.28 0.26 0.26 0.26 0.24 0.22 0.20 0.20 0.20 0.18 0.18 0.18 0.18 0.16 0.16 0.16 0.16 0.16 0.16 0.16 0.16 0.16 0.16 0.15 0.16 0.16 0.16 0.16 0.16 0.15 0.15 0.15 0.16 0.16 0.16 0.16 0.16 0.16 0.16 0.16 0.16 0.16 0.16 0.18 0.18 0.18 0.18 0.18 0.18 0.18 0.18 0.18 0.18
0.34 0.32 0.32 0.30 0.30 0.28 0.28 0.28 0.30 0.30 0.30 0.30 0.28 0.28 0.28 0.26 0.26 0.26 0.26 0.24 0.24 0.22 0.20 0.20 0.18 0.18 0.18 0.16 0.16 0.16 0.16 0.16 0.16 0.16 0.16 0.16 0.15 0.15 0.15 0.15 0.16 0.16 0.16 0.16 0.16 0.15 0.15 0.15 0.16 0.16 0.16 0.16 0.16 0.16 0.16 0.16 0.16 0.16 0.18 0.18 0.18 0.18 0.20 0.20 0.18 0.18 0.18 0.18 0.18
0.32 0.32 0.30 0.30 0.28 0.28 0.28 0.28 0.30 0.30 0.28 0.28 0.28 0.28 0.26 0.26 0.26 0.26 0.26 0.24 0.24 0.22 0.20 0.20 0.18 0.18 0.18 0.16 0.16 0.16 0.16 0.16 0.16 0.16 0.16 0.16 0.15 0.15 0.15 0.15 0.16 0.16 0.16 0.16 0.16 0.15 0.15 0.15 0.16 0.16 0.16 0.16 0.16 0.16 0.16 0.16 0.16 0.16 0.18 0.18 0.18 0.18 0.20 0.20 0.20 0.20 0.18 0.18 0.18
0.32 0.30 0.30 0.28 0.28 0.28 0.28 0.28 0.28 0.28 0.28 0.28 0.26 0.26 0.26 0.26 0.26 0.26 0.26 0.24 0.24 0.22 0.20 0.18 0.18 0.18 0.16 0.16 0.16 0.16 0.16 0.16 0.16 0.16 0.16 0.16 0.16 0.15 0.15 0.15 0.16 0.16 0.16 0.16 0.16 0.16 0.16 0.16 0.16 0.16 0.16 0.16 0.16 0.16 0.16 0.16 0.18 0.18 0.18 0.18 0.18 0.18 0.20 0.20 0.20 0.20 0.20 0.20 0.18
0.32 0.30 0.28 0.28 0.28 0.28 0.28 0.28 0.28 0.28 0.28 0.28 0.28 0.28 0.28 0.26 0.26 0.26 0.26 0.24 0.24 0.22 0.20 0.18 0.18 0.16 0.16 0.16 0.16 0.16 0.16 0.16 0.16 0.16 0.16 0.16 0.16 0.15 0.15 0.15 0.16 0.16 0.16 0.18 0.16 0.16 0.16 0.16 0.16 0.16 0.16 0.16 0.16 0.16 0.18 0.18 0.18 0.18 0.18 0.18 0.18 0.18 0.18 0.20 0.20 0.20 0.20 0.20 0.20
0.30 0.30 0.28 0.28 0.28 0.28 0.28 0.28 0.28 0.28 0.28 0.28 0.28 0.28 0.28 0.26 0.26 0.26 0.26 0.24 0.22 0.20 0.20 0.18 0.16 0.16 0.16 0.16 0.16 0.16 0.16 0.16 0.16 0.16 0.16 0.16 0.16 0.16 0.16 0.15 0.16 0.16 0.18 0.18 0.18 0.16 0.16 0.16 0.16 0.16 0.16 0.16 0.16 0.18 0.18 0.18 0.18 0.18 0.18 0.18 0.18 0.18 0.18 0.18 0.18 0.18 0.18 0.18 0.20
0.30 0.30 0.28 0.28 0.28 0.28 0.28 0.28 0.28 0.28 0.28 0.28 0.28 0.26 0.26 0.26 0.26 0.24 0.24 0.22 0.22 0.20 0.18 0.16 0.16 0.16 0.16 0.16 0.16 0.16 0.16 0.16 0.16 0.16 0.16 0.16 0.16 0.16 0.16 0.16 0.16 0.18 0.18 0.18 0.18 0.18 0.16 0.16 0.16 0.16 0.16 0.16 0.16 0.18 0.18 0.18 0.18 0.18 0.18 0.18 0.18 0.18 0.18 0.18 0.18 0.18 0.18 0.18 0.18
0.30 0.28 0.28 0.28 0.28 0.28 0.28 0.28 0.28 0.28 0.28 0.28 0.26 0.26 0.26 0.26 0.24 0.24 0.22 0.22 0.22 0.20 0.18 0.18 0.16 0.16 0.16 0.16 0.16 0.16 0.16 0.16 0.16 0.16 0.18 0.18 0.18 0.16 0.16 0.16 0.16 0.18 0.18 0.18 0.18 0.18 0.18 0.16 0.16 0.16 0.16 0.18 0.18 0.18 0.18 0.18 0.18 0.18 0.18 0.18 0.18 0.18 0.18 0.18 0.18 0.18 0.18 0.18 0.18
0.28 0.28 0.28 0.28 0.28 0.28 0.28 0.28 0.28 0.28 0.28 0.28 0.26 0.26 0.26 0.24 0.24 0.22 0.22 0.22 0.20 0.20 0.18 0.18 0.18 0.18 0.18 0.16 0.16 0.16 0.16 0.16 0.16 0.16 0.18 0.18 0.18 0.18 0.18 0.18 0.18 0.18 0.18 0.18 0.18 0.18 0.18 0.16 0.16 0.18 0.18 0.18 0.18 0.18 0.18 0.18 0.18 0.18 0.18 0.18 0.18 0.18 0.18 0.18 0.18 0.18 0.18 0.18 0.18
0.28 0.28 0.28 0.28 0.28 0.28 0.28 0.28 0.28 0.28 0.28 0.28 0.26 0.26 0.24 0.24 0.22 0.22 0.22 0.20 0.20 0.20 0.18 0.18 0.18 0.18 0.18 0.16 0.16 0.16 0.16 0.16 0.16 0.16 0.16 0.18 0.18 0.18 0.18 0.18 0.18 0.18 0.18 0.18 0.18 0.18 0.18 0.18 0.18 0.18 0.18 0.18 0.18 0.18 0.18 0.18 0.18 0.18 0.18 0.18 0.18 0.18 0.18 0.18 0.18 0.18 0.18 0.18 0.18
Wind_Speed
38 38 39 39 39 40 40 40 40 40 40 40 41 41 41 41 41 41 41 41 42 42 42 43 43 43 43 44 44 44 44 44 44 44 44 44 44 44 44 44 44 44 44 44 44 43 43 43 42 42 42 42 42 42 42 42 42 41 41 41 40 39 39 38 38 37 36 36 35
38 39 39 39 40 40 40 40 40 40 40 40 40 41 41 41 41 41 42 42 42 42 43 43 43 43 43 44 44 44 44 44 44 44 44 44 44 44 44 44 44 44 44 44 43 43 43 42 42 42 42 42 42 42 42 42 41 41 40 39 38 38 37 36 36 36 35 35 34
39 39 39 39 39 39 39 40 40 40 40 40 41 41 41 41 42 42 42 42 42 43 43 43 43 43 43 43 44 44 44 44 44 44 44 44 44 44 44 44 44 44 44 44 43 43 43 43 42 42 42 42 42 41 41 41 40 39 38 37 37 36 35 35 34 34 34 34 33
39 39 39 39 40 40 40 40 41 41 41 41 41 42 42 42 42 42 43 43 43 43 43 43 43 43 43 44 44 44 44 44 44 45 45 45 44 44 44 44 44 44 44 44 43 43 43 43 42 42 42 41 41 40 40 39 38 37 36 36 35 34 34 33 33 33 33 33 33
39 39 39 40 40 40 41 41 42 42 42 42 42 42 42 42 43 43 43 43 43 43 43 43 43 44 44 44 44 45 45 45 45 45 45 45 45 45 45 44 44 44 44 43 43 43 43 42 42 42 41 41 40 39 39 38 37 36 35 34 34 33 33 32 32 32 32 32 32
39 39 39 40 40 41 41 42 42 42 42 42 42 43 43 43 43 43 43 43 43 43 43 44 44 44 44 45 45 45 45 45 45 45 45 45 45 45 44 44 44 43 43 43 42 42 42 42 41 41 40 40 39 38 37 36 35 35 34 33 33 32 32 32 32 32 32 32 32
39 40 40 40 40 41 42 42 43 43 43 43 43 43 43 43 43 44 44 44 44 44 44 44 44 44 44 44 45 45 45 45 45 45 45 45 45 44 44 44 43 43 43 42 42 42 41 41 41 40 40 39 38 37 36 35 34 33 33 32 32 31 31 31 31 31 31 31 31
40 40 40 41 41 42 43 43 43 43 43 43 43 43 44 44 44 44 44 44 44 44 44 44 44 44 44 44 44 45 45 45 45 45 44 44 44 44 43 43 43 43 42 42 42 42 41 41 40 39 38 37 36 35 35 34 33 32 32 31 30 30 30 29 29 29 29 29 29
41 41 41 42 42 42 43 44 44 44 44 43 43 44 44 44 44 45 44 44 44 44 44 44 44 44 44 44 44 44 44 44 44 44 44 43 43 43 43 43 43 43 43 43 42 42 41 40 39 38 37 36 35 34 33 32 32 31 31 30 30 29 29 29 28 28 28 28 28
42 42 43 43 43 43 44 44 44 44 44 44 44 44 44 44 45 45 44 44 44 44 44 44 44 44 44 44 44 44 44 44 44 43 43 43 43 42 42 43 43 44 43 43 42 41 40 39 38 37 36 35 34 33 32 31 31 30 30 29 29 29 28 28 28 27 27 27 26
43 44 44 44 44 44 44 44 44 44 44 44 44 44 44 45 45 45 44 44 44 44 44 44 44 44 43 43 43 43 43 43 43 43 43 43 43 42 42 43 44 44 44 43 42 41 39 38 37 36 35 34 33 32 31 31 30 29 29 29 28 28 28 27 27 26 26 26 26
44 45 45 45 45 45 44 44 44 44 43 43 44 44 44 44 45 45 44 44 44 44 44 44 43 43 43 43 43 43 43 43 43 43 43 43 43 43 43 43 44 44 43 42 40 39 37 36 35 35 34 33 32 31 30 30 29 29 29 28 28 27 27 26 26 26 26 26 27
45 45 45 45 45 45 45 44 44 43 43 43 43 44 44 45 45 45 44 44 43 43 43 43 43 43 43 43 43 43 43 43 43 44 44 44 43 43 43 43 43 43 42 41 39 37 36 35 34 34 33 32 31 30 29 29 29 28 28 28 27 27 27 26 26 27 27 27 28
45 45 45 45 45 45 44 44 43 43 42 43 43 44 44 45 45 44 44 43 43 43 42 42 42 42 43 43 43 43 43 43 44 44 45 44 44 43 42 42 42 42 40 39 37 36 35 34 33 32 32 31 30 29 29 28 28 28 28 28 27 27 27 27 27 28 28 29 29
46 46 45 45 45 45 44 44 43 42 42 43 43 44 44 44 44 44 43 42 42 42 42 42 42 42 43 43 43 44 44 44 45 45 45 44 43 42 41 41 40 39 38 36 35 34 34 33 32 31 30 30 29 29 28 28 28 28 28 28 28 28 28 29 29 29 29 30 30
46 46 46 46 46 45 45 44 43 42 42 43 43 44 44 44 43 43 42 42 42 42 42 42 42 42 43 43 43 44 45 45 46 46 45 43 42 41 40 39 38 36 35 34 33 32 32 32 31 31 30 30 29 29 29 28 28 29 29 29 29 30 30 30 30 30 31 31 31
46 47 46 46 46 45 45 44 43 43 43 43 44 44 43 43 42 42 41 41 41 41 41 42 42 42 43 44 44 45 46 46 46 44 43 41 40 39 39 37 35 33 32 31 30 30 30 30 30 30 30 30 30 30 30 30 30 30 30 31 31 31 31 31 31 32 32 32 32
47 47 46 46 45 45 44 44 43 43 43 43 43 43 43 42 42 41 41 41 41 42 42 42 42 43 43 44 45 45 45 45 44 42 40 38 37 37 36 35 33 31 30 29 29 29 29 29 29 29 30 30 30 30 31 31 31 31 32 32 32 32 32 32 32 33 33 33 33
46 46 46 45 45 44 43 43 43 42 42 42 42 42 41 41 41 41 41 42 42 42 42 42 43 43 44 44 45 44 44 42 41 39 37 35 34 34 33 32 31 30 29 28 28 28 28 29 29 30 30 31 31 32 32 32 32 33 33 33 33 33 33 33 33 33 33 33 34
46 45 45 44 44 43 43 43 42 42 42 41 41 40 40 40 40 40 41 41 42 42 42 43 43 43 44 44 43 42 41 39 38 36 34 33 31 31 31 30 29 29 28 28 28 28 29 30 30 31 31 32 33 33 33 33 33 33 33 33 33 33 33 33 33 33 34 34 34
45 45 44 44 44 43 43 42 42 42 41 41 40 40 40 40 40 40 41 41 42 42 43 43 43 43 43 42 41 40 38 37 35 34 33 32 31 30 30 29 29 29 29 28 29 29 30 30 31 32 32 32 33 33 33 33 33 33 33 33 33 33 33 33 33 34 34 34 34
45 44 44 44 44 43 43 43 42 41 41 40 40 40 40 40 40 41 41 42 43 43 43 43 43 42 41 40 39 38 37 35 34 33 32 32 31 31 30 30 30 29 29 29 29 30 30 31 31 32 32 32 32 32 32 32 32 32 32 33 33 33 34 34 34 34 35 35 35
45 45 44 44 44 44 43 43 42 41 40 40 39 39 39 40 40 41 42 43 43 43 43 42 41 40 39 38 37 36 35 34 33 33 32 31 31 30 30 30 29 29 29 30 30 30 31 31 31 31 31 31 31 31 31 32 32 32 33 33 34 34 34 35 35 35 35 35 35
45 45 45 44 44 44 43 42 41 40 40 39 39 39 39 40 41 41 42 43 43 43 42 41 40 38 37 36 35 34 34 33 32 31 31 30 29 29 29 29 29 29 30 30 31 31 31 31 31 31 32 32 32 32 33 33 33 34 34 35 35 35 35 35 35 35 35 35 34
45 45 45 45 44 43 42 41 40 40 39 39 39 39 40 40 41 41 42 42 42 41 40 39 38 36 35 34 33 32 32 31 31 30 30 29 29 29 29 29 29 30 30 31 31 32 32 32 32 33 33 33 34 34 35 35 35 35 35 36 36 36 36 36 35 35 35 35 34
46 45 45 44 43 42 41 40 40 39 39 39 39 39 40 40 41 41 41 41 41 40 38 37 35 34 33 32 31 31 31 31 31 31 30 30 30 30 30 30 30 30 31 31 31 32 33 33 33 34 34 35 35 35 36 36 36 36 36 36 36 35 35 35 35 35 35 34 34
45 45 44 43 42 41 40 40 39 39 39 39 39 39 40 40 41 41 40 40 39 38 37 35 34 32 31 31 30 30 31 31 31 31 31 31 31 31 31 31 31 31 31 31 31 32 32 33 33 34 34 34 35 35 35 35 35 35 35 35 35 35 35 35 35 35 34 34 34
45 44 43 42 41 40 40 39 39 39 39 39 39 40 40 41 41 40 40 39 38 37 35 34 33 31 31 30 30 30 30 31 31 31 31 31 31 31 31 31 31 30 30 31 31 31 32 32 33 33 33 34 34 34 35 35 35 35 35 35 35 35 35 35 35 34 34 34 34
44 43 42 41 41 40 39 39 39 39 39 40 40 40 40 40 40 39 38 37 36 35 34 33 32 31 30 30 30 30 30 30 31 31 31 31 31 31 31 31 31 31 31 31 31 32 32 32 33 33 33 34 34 34 35 35 35 35 35 35 35 35 35 35 35 34 34 34 34
43 42 41 41 40 39 39 39 39 39 40 40 40 40 39 39 38 38 37 36 35 34 33 32 31 30 30 30 30 30 30 30 30 30 31 31 31 31 32 32 31 31 31 31 32 32 33 33 33 34 34 34 35 35 35 35 35 35 35 35 35 35 35 35 35 35 35 34 34
42 41 41 40 40 39 39 39 40 40 40 40 39 39 38 37 37 36 35 34 34 33 32 31 30 30 30 30 29 29 30 30 30 30 30 31 31 32 32 32 32 32 32 32 33 33 34 34 34 35 35 35 35 35 36 36 36 36 36 36 36 36 36 35 35 35 35 35 34
42 41 40 40 40 40 40 40 40 39 39 39 38 38 37 36 35 35 34 33 32 32 31 31 30 30 30 30 30 30 30 30 30 31 31 31 32 32 32 32 32 32 32 33 33 34 34 35 35 35 36 36 36 36 36 37 37 37 36 36 36 36 36 35 35 35 35 35 34
41 40 40 40 39 39 39 39 39 39 38 38 37 36 36 35 34 33 32 32 31 31 31 30 30 30 30 30 30 30 30 31 31 31 32 32 32 33 33 33 32 32 33 33 34 34 35 35 36 36 36 37 37 37 37 37 37 36 36 36 36 36 36 35 35 35 35 35 34
41 40 40 40 39 39 39 38 38 38 37 36 36 35 34 33 33 32 31 31 31 30 30 30 30 30 30 30 30 31 31 31 32 32 32 33 33 33 33 33 33 33 33 34 34 35 35 36 36 37 37 37 37 37 37 37 36 36 36 36 36 35 35 35 35 35 35 34 34
41 40 39 39 39 38 38 37 37 36 36 35 35 34 33 32 32 31 31 30 30 30 30 30 30 30 30 30 30 31 32 32 32 33 33 33 33 34 34 34 34 33 34 34 35 36 36 37 37 37 37 37 37 37 37 36 36 36 35 35 35 35 35 34 34 34 34 34 34
40 39 39 38 38 37 37 36 36 35 35 34 34 33 32 32 31 31 30 30 30 30 30 30 30 30 30 30 31 32 32 33 33 33 33 34 34 34 34 35 34 34 35 35 36 36 37 37 37 38 38 37 37 36 36 35 35 35 35 34 34 34 34 34 33 33 33 33 33
39 38 38 37 37 36 36 35 35 34 34 33 32 32 31 31 31 31 30 30 30 30 30 30 31 31 31 31 32 32 33 33 34 34 34 34 34 35 35 35 35 36 36 36 37 37 37 38 38 38 37 37 36 36 35 35 34 34 34 34 33 33 33 33 33 33 32 32 32
38 37 36 36 36 35 35 34 34 33 33 32 31 31 31 31 31 30 30 30 30 30 31 31 31 31 31 32 32 33 34 34 34 34 34 35 35 35 35 36 36 36 37 37 37 37 38 38 38 38 37 36 36 35 35 34 34 33 33 33 32 32 32 32 31 31 31 31 31
37 36 35 35 35 34 34 33 33 32 32 31 31 31 30 30 30 30 30 30 30 30 31 31 31 31 32 32 33 34 34 34 35 35 35 35 35 35 36 36 37 37 37 37 37 38 38 37 37 37 37 36 35 35 34 33 33 33 32 32 31 31 31 30 30 30 30 30 31
36 35 35 34 34 33 33 32 32 31 31 30 30 30 30 30 30 30 30 30 30 30 31 31 31 32 32 33 34 34 34 35 35 35 35 36 36 36 36 37 37 37 37 37 37 37 37 37 37 36 36 35 34 33 33 32 32 31 31 31 30 30 29 29 29 29 29 29 29
35 34 34 33 33 32 32 31 31 30 30 30 30 30 30 30 30 30 30 30 30 31 31 31 32 32 33 34 34 34 35 35 36 36 36 36 36 36 37 37 37 37 37 37 37 36 36 36 36 35 35 34 33 32 32 31 31 31 30 30 29 29 29 29 28 28 28 28 28
Wind_Direction
309 309 309 308 307 306 306 305 305 304 304 304 304 304 304 304 303 303 302 302 301 301 300 300 300 300 299 299 299 299 299 299 299 299 298 298 298 297 297 297 297 297 296 296 296 295 295 295 294 294 294 293 293 293 292 292 292 292 292 293 293 293 293 293 292 291 291 290 288
309 308 308 307 306 305 305 305 305 305 304 304 304 304 304 304 304 303 303 302 301 301 300 300 300 300 299 299 299 299 299 299 298 298 298 298 297 297 297 296 296 296 295 295 295 295 295 295 295 295 294 294 294 293 293 293 293 293 293 293 293 293 293 292 291 289 288 287 286
308 307 307 306 306 305 305 305 305 305 305 305 305 305 304 304 304 304 303 302 302 301 301 300 300 300 299 299 299 299 298 298 298 298 298 297 297 297 296 296 296 295 295 295 295 295 295 296 296 296 295 295 294 294 293 293 293 293 293 292 292 291 290 289 288 286 285 284 283
307 307 306 306 306 306 305 306 306 306 306 305 305 305 304 304 304 304 304 303 302 301 301 300 300 299 299 299 299 298 298 298 298 298 297 297 297 296 296 296 296 295 295 295 296 296 296 296 296 296 296 295 295 294 294 294 293 293 293 292 291 289 288 287 285 284 284 283 282
307 306 306 306 306 306 306 306 306 306 306 306 305 305 305 304 304 304 304 303 302 301 300 300 300 300 299 299 299 298 298 298 298 298 297 297 297 296 296 296 296 296 296 296 296 297 297 297 297 297 296 296 295 294 294 293 293 292 292 291 289 288 286 285 284 283 283 283 283
307 307 306 306 306 306 307 307 306 306 306 305 305 305 305 305 305 304 304 303 302 301 300 300 300 300 299 299 299 298 298 298 298 298 298 297 297 297 297 296 296 296 296 297 297 297 297 297 297 297 296 296 295 294 293 293 292 291 290 289 287 286 284 283 282 282 282 282 282
308 307 307 306 306 306 307 307 306 306 305 305 305 305 305 305 305 304 304 303 302 301 301 300 300 299 299 299 298 298 298 298 298 298 298 298 298 298 297 297 297 297 297 297 298 298 298 297 297 297 296 295 294 293 292 291 290 289 288 286 285 284 283 282 282 282 282 282 282
309 308 307 307 306 306 307 307 306 306 305 305 305 305 305 305 305 305 304 304 303 302 301 300 300 299 299 299 299 299 299 299 299 299 299 299 299 299 298 298 298 298 298 298 298 298 298 297 297 296 295 294 293 292 291 289 288 287 285 284 284 283 282 282 282 283 283 283 284
309 309 308 307 307 306 306 306 306 306 305 305 305 305 305 306 306 306 305 304 303 302 301 300 300 299 299 299 299 299 299 300 300 299 299 299 299 299 299 299 299 298 298 298 298 298 297 297 296 295 294 293 292 291 289 288 286 285 284 283 283 283 283 283 284 284 285 285 286
310 309 308 307 307 307 306 306 306 306 305 305 305 305 306 306 307 306 306 305 304 302 301 301 300 300 300 300 301 301 301 301 300 300 300 300 300 299 299 299 298 298 298 298 298 297 297 296 295 294 293 292 291 290 289 287 285 284 284 284 284 284 284 285 285 286 286 285 285
311 310 309 308 307 307 307 306 306 305 305 305 305 306 307 307 307 307 306 305 304 303 302 302 302 302 302 302 302 302 302 302 302 301 301 301 301 300 299 299 298 297 297 297 297 297 296 295 294 293 292 291 290 289 288 286 285 284 284 284 284 284 285 285 285 285 284 283 282
312 311 310 309 308 307 306 306 306 305 305 305 306 306 307 307 307 307 306 305 304 303 303 303 303 304 304 304 304 304 303 303 303 302 302 302 301 300 299 299 298 297 296 295 295 295 295 294 293 292 291 290 289 288 287 286 285 284 284 284 284 284 284 284 283 282 281 281 281
313 312 311 309 308 307 306 306 306 305 305 305 306 307 308 308 307 307 306 305 305 305 305 305 305 305 305 305 305 305 304 304 303 303 303 302 301 300 299 299 298 296 295 293 293 293 293 293 292 291 290 289 288 287 286 285 285 284 284 284 284 283 283 282 281 280 280 280 280
313 312 311 309 308 307 307 306 306 306 306 306 307 307 308 308 308 308 307 307 306 306 306 306 306 306 305 305 305 305 304 304 304 303 303 302 301 300 299 298 297 295 294 292 292 291 292 292 291 291 289 288 287 286 285 285 284 284 284 283 283 282 282 281 281 280 280 280 281
313 312 311 310 309 308 307 307 307 306 306 307 307 308 309 309 309 309 309 308 308 307 307 306 305 305 305 305 305 305 304 304 304 303 303 302 301 299 298 297 296 295 294 292 291 291 291 291 291 290 289 288 287 286 285 285 284 284 283 283 283 282 282 282 281 281 281 281 282
313 312 311 310 310 309 309 308 308 307 307 307 308 309 310 310 311 310 310 309 308 308 307 306 305 305 305 305 305 305 304 304 304 303 302 301 300 299 298 297 296 295 294 293 293 292 292 291 290 290 289 289 288 287 286 285 285 284 284 283 283 283 283 283 282 282 283 283 283
312 312 312 311 311 310 310 310 309 308 308 308 309 309 310 311 311 311 310 309 309 308 307 306 305 305 305 305 305 305 305 304 304 304 303 301 300 299 298 296 295 295 295 295 294 294 293 293 292 292 291 290 290 289 288 287 286 285 285 284 284 283 283 283 283 283 283 283 283
313 312 312 312 312 311 311 311 310 310 309 310 310 311 311 311 311 310 310 310 309 308 307 306 305 305 305 305 305 305 305 305 305 304 304 302 301 300 298 297 295 295 295 295 295 295 295 294 294 293 293 292 291 290 289 288 287 286 286 285 284 284 283 283 283 283 282 282 282
313 313 313 313 312 312 312 311 311 311 311 311 311 312 312 312 311 311 311 310 309 308 307 306 306 306 306 306 306 306 306 306 306 305 305 304 302 301 299 297 296 295 294 294 295 294 294 294 293 293 292 292 291 290 289 288 288 287 286 285 285 284 284 283 283 283 282 282 282
314 313 313 313 313 312 312 312 312 312 312 312 313 313 313 313 312 312 312 311 310 309 308 307 307 307 307 307 307 307 307 306 307 306 306 305 304 302 300 299 297 296 295 295 295 294 294 293 292 292 291 290 289 289 289 288 288 287 286 286 285 285 284 284 284 283 283 283 283
314 313 313 313 313 313 312 312 313 313 313 313 314 314 313 313 313 313 312 311 310 309 309 308 308 307 308 308 308 308 308 308 307 307 306 305 304 302 300 299 297 296 296 295 295 294 294 293 292 291 289 288 288 287 287 287 287 286 286 285 285 285 285 285 284 284 284 284 283
313 313 313 313 313 313 313 313 313 314 314 314 314 314 313 313 312 312 311 311 310 310 309 309 309 309 309 309 310 309 309 308 307 306 305 304 302 301 299 297 296 296 295 295 295 294 294 293 291 290 289 287 287 287 287 286 286 286 285 285 285 285 285 285 285 285 284 284 284
313 313 313 313 313 313 314 314 314 314 314 314 314 313 313 312 312 311 311 311 311 311 310 310 310 310 310 310 309 308 307 306 305 304 303 302 301 299 298 297 296 296 295 295 295 294 294 293 291 290 289 289 289 288 288 287 287 286 286 286 286 286 286 286 286 286 285 285 285
313 313 313 313 313 314 314 314 315 314 314 313 313 312 312 311 311 312 312 312 312 312 312 311 310 310 309 309 308 307 306 305 304 304 303 302 301 300 299 299 298 297 297 296 296 295 294 294 293 292 292 292 291 291 290 289 289 288 288 288 288 288 288 287 287 287 286 286 285
313 313 313 314 314 314 315 315 314 314 313 312 312 311 311 312 312 313 313 313 313 313 313 312 311 310 309 308 307 306 306 306 306 305 305 304 303 302 301 300 299 298 298 297 297 296 296 295 295 294 294 294 293 293 292 292 291 290 290 290 289 289 289 289 288 287 287 286 285
313 313 313 314 314 314 314 314 314 313 312 311 311 311 312 312 313 314 314 314 314 314 314 313 312 310 309 308 307 306 306 306 306 306 305 305 304 303 302 301 301 300 299 299 298 298 297 296 296 295 295 294 294 294 293 293 292 292 291 290 290 289 289 289 288 287 287 286 285
313 313 313 314 314 314 313 313 312 312 311 311 312 313 313 314 314 314 315 315 315 315 314 313 312 311 309 308 307 306 306 306 306 305 305 305 304 304 304 303 303 302 301 301 301 300 299 298 297 296 296 295 295 294 294 293 293 292 291 290 290 289 289 288 288 287 287 286 285
313 313 313 313 313 313 312 311 311 311 312 312 313 314 314 315 315 315 315 315 315 314 314 313 313 311 310 309 308 307 306 305 305 304 304 304 304 305 305 305 304 303 303 303 302 302 301 300 299 298 297 296 295 295 294 293 293 292 291 290 289 289 288 288 287 287 286 286 286
312 313 312 312 312 311 311 311 311 312 313 313 314 315 315 315 315 315 315 315 314 314 313 313 312 311 310 309 308 307 306 305 304 303 303 304 304 305 305 305 304 304 304 304 303 303 302 301 300 299 298 297 296 296 295 294 293 292 291 290 289 289 288 288 287 287 287 286 286
312 312 311 311 310 310 310 311 312 313 314 314 315 315 315 315 315 314 314 314 314 313 313 312 311 310 310 309 308 307 305 305 304 303 303 304 304 305 305 305 305 304 304 304 304 303 303 302 301 300 299 298 297 296 295 294 293 292 291 290 289 289 288 288 287 287 287 286 286
311 311 310 309 309 310 310 312 313 314 314 315 315 315 315 314 314 314 314 313 313 313 312 312 311 310 309 309 308 307 306 305 305 305 305 305 305 306 306 306 305 304 304 305 304 304 303 303 302 301 300 299 298 297 296 295 294 293 291 290 289 289 288 288 287 287 286 286 286
310 309 309 309 310 310 312 313 313 314 314 315 315 315 314 314 313 313 313 313 313 313 313 312 311 310 310 309 308 308 307 307 307 307 307 307 307 307 307 307 306 305 305 305 305 304 304 303 302 301 300 300 298 297 296 295 294 293 291 290 289 288 287 287 287 286 286 286 285
309 309 309 309 310 311 312 313 314 314 314 314 314 314 314 313 312 312 312 312 313 313 312 312 311 310 310 309 309 308 308 308 308 308 308 308 308 308 308 307 306 305 305 305 305 305 304 303 302 302 301 300 299 298 296 295 294 293 291 290 289 288 287 287 286 286 286 285 285
309 309 310 310 311 312 312 313 313 314 314 314 313 313 312 312 312 311 311 312 312 312 312 311 311 310 309 309 309 309 309 309 309 309 309 309 309 309 308 308 306 306 305 305 305 305 304 304 303 302 302 301 299 298 297 296 294 292 291 290 289 288 287 287 286 286 285 285 284
309 310 310 311 311 312 312 313 313 313 313 313 313 312 311 311 311 311 311 311 311 311 311 311 311 310 309 309 309 309 310 310 310 310 310 310 310 309 309 308 307 306 306 306 306 305 305 304 304 303 302 301 300 299 298 296 294 293 291 290 289 289 288 287 286 286 285 284 284
309 309 310 310 311 312 312 313 313 313 313 312 312 311 310 310 310 311 311 310 311 311 311 311 311 310 310 309 310 310 311 311 311 311 311 311 310 310 309 308 308 307 306 306 306 306 306 305 305 304 303 302 301 300 298 297 295 293 292 291 290 289 288 288 287 286 285 284 283
308 309 309 310 311 312 312 313 313 313 312 312 311 310 310 310 310 310 310 310 310 311 311 311 311 310 310 310 311 311 312 312 312 312 311 311 311 310 310 309 308 308 307 307 307 307 306 306 305 305 304 303 302 300 299 297 296 294 293 292 291 290 289 288 287 286 285 284 283
308 308 309 310 311 312 313 313 313 312 311 311 310 310 310 310 310 310 310 310 310 310 311 311 311 311 311 311 312 312 313 313 312 312 312 311 311 311 310 310 309 309 308 308 307 307 307 307 306 305 305 303 302 301 300 298 297 295 294 293 292 291 289 289 288 286 285 284 283
307 308 309 310 311 312 313 313 312 311 310 310 310 310 310 310 310 310 310 310 310 310 310 310 311 311 311 312 313 313 313 313 313 313 312 312 311 311 311 310 309 309 309 308 308 308 307 307 307 306 305 304 303 302 300 299 298 296 295 294 293 292 291 290 288 287 286 285 284
307 308 309 310 311 312 312 312 311 310 310 309 309 309 309 309 310 310 310 310 310 310 310 310 311 312 312 313 313 314 314 314 314 313 313 312 312 311 311 310 310 309 309 309 309 308 308 308 307 307 306 305 304 303 301 300 299 297 296 295 294 293 292 291 290 288 287 286 285
307 308 310 310 311 312 312 311 311 310 310 309 309 309 309 309 310 310 310 310 310 310 311 311 312 313 314 314 314 314 314 314 314 314 313 312 312 311 311 310 310 310 310 310 310 310 309 309 308 308 307 306 305 304 302 301 300 298 297 296 295 294 293 292 291 289 288 286 285